contact:dominique.lefevre@mio.osupytheas.fr, maurice.libes@osupytheas.fr, didier.mallarino@osupytheas.fr
Project:EMSO http://www.emso-fr.org/EMSO-France
Depth: 2436.0 m
Title:EMSO Ligure Ouest : Data MII capteur MICROCAT
DateTime_Computer,Latitude,Longitude,Temperature,Conductivity,Pressure,DateTime_Instrument
DateTime_Computer,Latitude,Longitude,degC,S m-1,dbar,DateTime_Instrument
2022-01-24T00:02:10Z,42.805,6.029,13.3016,4.60058,2470.366,2022-1-24T02:03:41Z
2022-01-24T00:05:13Z,42.805,6.029,13.3018,4.60069,2470.343,2022-1-24T02:06:45Z
2022-01-24T00:08:16Z,42.805,6.029,13.3008,4.60053,2470.343,2022-1-24T02:09:48Z
2022-01-24T00:11:19Z,42.805,6.029,13.3009,4.60051,2470.366,2022-1-24T02:12:51Z
2022-01-24T00:14:22Z,42.805,6.029,13.3010,4.60069,2470.357,2022-1-24T02:15:54Z
2022-01-24T00:17:25Z,42.805,6.029,13.3006,4.60067,2470.32,2022-1-24T02:18:57Z
2022-01-24T00:20:28Z,42.805,6.029,13.3010,4.60061,2470.366,2022-1-24T02:22:00Z
2022-01-24T00:23:32Z,42.805,6.029,13.3014,4.60073,2470.343,2022-1-24T02:25:03Z
2022-01-24T00:26:35Z,42.805,6.029,13.3006,4.60054,2470.357,2022-1-24T02:28:06Z
2022-01-24T00:29:38Z,42.805,6.029,13.3014,4.60054,2470.343,2022-1-24T02:31:09Z
2022-01-24T00:32:41Z,42.805,6.029,13.3009,4.60057,2470.357,2022-1-24T02:34:13Z
2022-01-24T00:35:44Z,42.805,6.029,13.3007,4.60059,2470.343,2022-1-24T02:37:16Z
2022-01-24T00:38:47Z,42.805,6.029,13.3013,4.60067,2470.366,2022-1-24T02:40:19Z
2022-01-24T00:41:50Z,42.805,6.029,13.3009,4.60057,2470.357,2022-1-24T02:43:22Z
2022-01-24T00:44:53Z,42.805,6.029,13.3011,4.60062,2470.343,2022-1-24T02:46:25Z
2022-01-24T00:47:56Z,42.805,6.029,13.3009,4.60046,2470.32,2022-1-24T02:49:28Z
2022-01-24T00:51:00Z,42.805,6.029,13.3003,4.60052,2470.334,2022-1-24T02:52:31Z
2022-01-24T00:54:03Z,42.805,6.029,13.3019,4.60056,2470.366,2022-1-24T02:55:34Z
2022-01-24T00:57:06Z,42.805,6.029,13.3009,4.60046,2470.32,2022-1-24T02:58:38Z
2022-01-24T01:00:09Z,42.805,6.029,13.3009,4.60062,2470.357,2022-1-24T03:01:41Z
2022-01-24T01:03:12Z,42.805,6.029,13.3007,4.60051,2470.31,2022-1-24T03:04:44Z
2022-01-24T01:06:15Z,42.805,6.029,13.3008,4.60061,2470.357,2022-1-24T03:07:47Z
2022-01-24T01:09:18Z,42.805,6.029,13.3010,4.60062,2470.32,2022-1-24T03:10:50Z
2022-01-24T01:12:21Z,42.805,6.029,13.3018,4.60058,2470.343,2022-1-24T03:13:53Z
2022-01-24T01:15:25Z,42.805,6.029,13.3010,4.60060,2470.32,2022-1-24T03:16:56Z
2022-01-24T01:18:28Z,42.805,6.029,13.3008,4.60046,2470.334,2022-1-24T03:19:59Z
2022-01-24T01:21:31Z,42.805,6.029,13.3004,4.60049,2470.334,2022-1-24T03:23:03Z
2022-01-24T01:24:34Z,42.805,6.029,13.3003,4.60052,2470.343,2022-1-24T03:26:06Z
2022-01-24T01:27:37Z,42.805,6.029,13.3009,4.60039,2470.32,2022-1-24T03:29:09Z
2022-01-24T01:30:40Z,42.805,6.029,13.3009,4.60065,2470.343,2022-1-24T03:32:12Z
2022-01-24T01:33:43Z,42.805,6.029,13.3000,4.60050,2470.334,2022-1-24T03:35:15Z
2022-01-24T01:36:46Z,42.805,6.029,13.3004,4.60047,2470.334,2022-1-24T03:38:18Z
2022-01-24T01:39:50Z,42.805,6.029,13.3011,4.60063,2470.334,2022-1-24T03:41:21Z
2022-01-24T01:42:53Z,42.805,6.029,13.3006,4.60067,2470.334,2022-1-24T03:44:24Z
2022-01-24T01:45:56Z,42.805,6.029,13.3015,4.60067,2470.357,2022-1-24T03:47:28Z
2022-01-24T01:48:59Z,42.805,6.029,13.3011,4.60051,2470.334,2022-1-24T03:50:31Z
2022-01-24T01:52:02Z,42.805,6.029,13.3014,4.60054,2470.297,2022-1-24T03:53:34Z
2022-01-24T01:55:05Z,42.805,6.029,13.3008,4.60062,2470.32,2022-1-24T03:56:37Z
2022-01-24T01:58:08Z,42.805,6.029,13.3009,4.60058,2470.343,2022-1-24T03:59:40Z
2022-01-24T02:01:11Z,42.805,6.029,13.3009,4.60055,2470.343,2022-1-24T04:02:43Z
2022-01-24T02:04:15Z,42.805,6.029,13.3013,4.60059,2470.357,2022-1-24T04:05:46Z
2022-01-24T02:07:18Z,42.805,6.029,13.3005,4.60053,2470.334,2022-1-24T04:08:49Z
2022-01-24T02:10:21Z,42.805,6.029,13.3019,4.60053,2470.32,2022-1-24T04:11:53Z
2022-01-24T02:13:24Z,42.805,6.029,13.3007,4.60052,2470.297,2022-1-24T04:14:56Z
2022-01-24T02:16:27Z,42.805,6.029,13.3009,4.60057,2470.297,2022-1-24T04:17:59Z
2022-01-24T02:19:30Z,42.805,6.029,13.3011,4.60046,2470.334,2022-1-24T04:21:02Z
2022-01-24T02:22:33Z,42.805,6.029,13.3005,4.60052,2470.297,2022-1-24T04:24:05Z
2022-01-24T02:25:36Z,42.805,6.029,13.3007,4.60059,2470.32,2022-1-24T04:27:08Z
2022-01-24T02:28:40Z,42.805,6.029,13.3011,4.60067,2470.334,2022-1-24T04:30:11Z
2022-01-24T02:31:43Z,42.805,6.029,13.3011,4.60062,2470.343,2022-1-24T04:33:14Z
2022-01-24T02:34:46Z,42.805,6.029,13.3011,4.60058,2470.297,2022-1-24T04:36:17Z
2022-01-24T02:37:49Z,42.805,6.029,13.3014,4.60050,2470.334,2022-1-24T04:39:21Z
2022-01-24T02:40:52Z,42.805,6.029,13.3008,4.60066,2470.334,2022-1-24T04:42:24Z
2022-01-24T02:43:55Z,42.805,6.029,13.3011,4.60068,2470.31,2022-1-24T04:45:27Z
2022-01-24T02:46:58Z,42.805,6.029,13.3011,4.60074,2470.273,2022-1-24T04:48:30Z
2022-01-24T02:50:01Z,42.805,6.029,13.3014,4.60061,2470.297,2022-1-24T04:51:33Z
2022-01-24T02:53:05Z,42.805,6.029,13.3006,4.60054,2470.297,2022-1-24T04:54:36Z
2022-01-24T02:56:08Z,42.805,6.029,13.3019,4.60066,2470.297,2022-1-24T04:57:39Z
2022-01-24T02:59:11Z,42.805,6.029,13.3010,4.60055,2470.31,2022-1-24T05:00:43Z
2022-01-24T03:02:14Z,42.805,6.029,13.3014,4.60061,2470.334,2022-1-24T05:03:46Z
2022-01-24T03:05:17Z,42.805,6.029,13.3013,4.60054,2470.32,2022-1-24T05:06:49Z
2022-01-24T03:08:20Z,42.805,6.029,13.3009,4.60054,2470.32,2022-1-24T05:09:52Z
2022-01-24T03:11:23Z,42.805,6.029,13.3007,4.60046,2470.32,2022-1-24T05:12:55Z
2022-01-24T03:14:26Z,42.805,6.029,13.3011,4.60059,2470.273,2022-1-24T05:15:58Z
2022-01-24T03:17:30Z,42.805,6.029,13.3011,4.60052,2470.357,2022-1-24T05:19:01Z
2022-01-24T03:20:33Z,42.805,6.029,13.3012,4.60054,2470.32,2022-1-24T05:22:04Z
2022-01-24T03:23:36Z,42.805,6.029,13.3009,4.60056,2470.31,2022-1-24T05:25:07Z
2022-01-24T03:26:39Z,42.805,6.029,13.3010,4.60062,2470.32,2022-1-24T05:28:11Z
2022-01-24T03:29:42Z,42.805,6.029,13.3011,4.60056,2470.32,2022-1-24T05:31:14Z
2022-01-24T03:32:45Z,42.805,6.029,13.3011,4.60053,2470.32,2022-1-24T05:34:17Z
2022-01-24T03:35:48Z,42.805,6.029,13.3010,4.60042,2470.334,2022-1-24T05:37:20Z
2022-01-24T03:38:51Z,42.805,6.029,13.3016,4.60070,2470.287,2022-1-24T05:40:23Z
2022-01-24T03:41:54Z,42.805,6.029,13.3006,4.60053,2470.297,2022-1-24T05:43:26Z
2022-01-24T03:44:58Z,42.805,6.029,13.3017,4.60053,2470.32,2022-1-24T05:46:29Z
2022-01-24T03:48:01Z,42.805,6.029,13.3004,4.60073,2470.297,2022-1-24T05:49:32Z
2022-01-24T03:51:04Z,42.805,6.029,13.3009,4.60054,2470.283,2022-1-24T05:52:36Z
2022-01-24T03:54:07Z,42.805,6.029,13.3019,4.60066,2470.297,2022-1-24T05:55:39Z
2022-01-24T03:57:10Z,42.805,6.029,13.3014,4.60052,2470.273,2022-1-24T05:58:42Z
2022-01-24T04:00:13Z,42.805,6.029,13.3010,4.60074,2470.31,2022-1-24T06:01:45Z
2022-01-24T04:03:16Z,42.805,6.029,13.3008,4.60070,2470.32,2022-1-24T06:04:48Z
2022-01-24T04:06:19Z,42.805,6.029,13.3009,4.60070,2470.297,2022-1-24T06:07:51Z
2022-01-24T04:09:23Z,42.805,6.029,13.3011,4.60053,2470.334,2022-1-24T06:10:54Z
2022-01-24T04:12:26Z,42.805,6.029,13.3027,4.60057,2470.287,2022-1-24T06:13:57Z
2022-01-24T04:15:29Z,42.805,6.029,13.3019,4.60060,2470.273,2022-1-24T06:17:01Z
2022-01-24T04:18:32Z,42.805,6.029,13.3008,4.60059,2470.297,2022-1-24T06:20:04Z
2022-01-24T04:21:35Z,42.805,6.029,13.3010,4.60044,2470.31,2022-1-24T06:23:07Z
2022-01-24T04:24:38Z,42.805,6.029,13.3009,4.60069,2470.334,2022-1-24T06:26:10Z
2022-01-24T04:27:41Z,42.805,6.029,13.3016,4.60052,2470.297,2022-1-24T06:29:13Z
2022-01-24T04:30:44Z,42.805,6.029,13.3006,4.60052,2470.287,2022-1-24T06:32:16Z
2022-01-24T04:33:48Z,42.805,6.029,13.3012,4.60067,2470.32,2022-1-24T06:35:19Z
2022-01-24T04:36:51Z,42.805,6.029,13.3007,4.60066,2470.31,2022-1-24T06:38:22Z
2022-01-24T04:39:54Z,42.805,6.029,13.3004,4.60063,2470.297,2022-1-24T06:41:26Z
2022-01-24T04:42:57Z,42.805,6.029,13.3006,4.60046,2470.273,2022-1-24T06:44:29Z
2022-01-24T04:46:00Z,42.805,6.029,13.3008,4.60062,2470.25,2022-1-24T06:47:32Z
2022-01-24T04:49:03Z,42.805,6.029,13.3016,4.60051,2470.334,2022-1-24T06:50:35Z
2022-01-24T04:52:06Z,42.805,6.029,13.3006,4.60052,2470.31,2022-1-24T06:53:38Z
2022-01-24T04:55:09Z,42.805,6.029,13.3010,4.60048,2470.31,2022-1-24T06:56:41Z
2022-01-24T04:58:13Z,42.805,6.029,13.3006,4.60052,2470.297,2022-1-24T06:59:44Z
2022-01-24T05:01:16Z,42.805,6.029,13.3006,4.60054,2470.297,2022-1-24T07:02:47Z
2022-01-24T05:04:19Z,42.805,6.029,13.3015,4.60051,2470.31,2022-1-24T07:05:51Z
2022-01-24T05:07:22Z,42.805,6.029,13.3015,4.60078,2470.287,2022-1-24T07:08:54Z
2022-01-24T05:10:25Z,42.805,6.029,13.3007,4.60064,2470.297,2022-1-24T07:11:57Z
2022-01-24T05:13:28Z,42.805,6.029,13.3011,4.60049,2470.31,2022-1-24T07:15:00Z
2022-01-24T05:16:31Z,42.805,6.029,13.3006,4.60058,2470.334,2022-1-24T07:18:03Z
2022-01-24T05:19:34Z,42.805,6.029,13.3006,4.60051,2470.31,2022-1-24T07:21:06Z
2022-01-24T05:22:38Z,42.805,6.029,13.3006,4.60044,2470.334,2022-1-24T07:24:09Z
2022-01-24T05:25:41Z,42.805,6.029,13.3007,4.60040,2470.297,2022-1-24T07:27:12Z
2022-01-24T05:28:44Z,42.805,6.029,13.3006,4.60046,2470.297,2022-1-24T07:30:15Z
2022-01-24T05:31:47Z,42.805,6.029,13.3015,4.60046,2470.297,2022-1-24T07:33:19Z
2022-01-24T05:34:50Z,42.805,6.029,13.3016,4.60059,2470.32,2022-1-24T07:36:22Z
2022-01-24T05:37:53Z,42.805,6.029,13.3021,4.60072,2470.31,2022-1-24T07:39:25Z
2022-01-24T05:40:56Z,42.805,6.029,13.3005,4.60067,2470.297,2022-1-24T07:42:28Z
2022-01-24T05:43:59Z,42.805,6.029,13.3008,4.60053,2470.273,2022-1-24T07:45:31Z
2022-01-24T05:47:03Z,42.805,6.029,13.3004,4.60047,2470.32,2022-1-24T07:48:34Z
2022-01-24T05:50:06Z,42.805,6.029,13.3009,4.60070,2470.334,2022-1-24T07:51:37Z
2022-01-24T05:53:09Z,42.805,6.029,13.3008,4.60055,2470.31,2022-1-24T07:54:40Z
2022-01-24T05:56:12Z,42.805,6.029,13.3017,4.60074,2470.31,2022-1-24T07:57:44Z
2022-01-24T05:59:15Z,42.805,6.029,13.3002,4.60055,2470.273,2022-1-24T08:00:47Z
2022-01-24T06:02:18Z,42.805,6.029,13.3009,4.60050,2470.334,2022-1-24T08:03:50Z
2022-01-24T06:05:21Z,42.805,6.029,13.3005,4.60039,2470.334,2022-1-24T08:06:53Z
2022-01-24T06:08:24Z,42.805,6.029,13.3004,4.60041,2470.31,2022-1-24T08:09:56Z
2022-01-24T06:11:28Z,42.805,6.029,13.3013,4.60069,2470.334,2022-1-24T08:12:59Z
2022-01-24T06:14:31Z,42.805,6.029,13.3014,4.60062,2470.334,2022-1-24T08:16:02Z
2022-01-24T06:17:34Z,42.805,6.029,13.3010,4.60066,2470.32,2022-1-24T08:19:05Z
2022-01-24T06:20:37Z,42.805,6.029,13.3007,4.60043,2470.32,2022-1-24T08:22:09Z
2022-01-24T06:23:40Z,42.805,6.029,13.3014,4.60061,2470.334,2022-1-24T08:25:12Z
2022-01-24T06:26:43Z,42.805,6.029,13.3015,4.60060,2470.297,2022-1-24T08:28:15Z
2022-01-24T06:29:46Z,42.805,6.029,13.3011,4.60063,2470.357,2022-1-24T08:31:18Z
2022-01-24T06:32:49Z,42.805,6.029,13.3010,4.60056,2470.32,2022-1-24T08:34:21Z
2022-01-24T06:35:53Z,42.805,6.029,13.3015,4.60062,2470.334,2022-1-24T08:37:24Z
2022-01-24T06:38:56Z,42.805,6.029,13.3004,4.60041,2470.357,2022-1-24T08:40:27Z
2022-01-24T06:41:59Z,42.805,6.029,13.3026,4.60060,2470.306,2022-1-24T08:43:30Z
2022-01-24T06:45:02Z,42.805,6.029,13.3011,4.60077,2470.357,2022-1-24T08:46:34Z
2022-01-24T06:48:05Z,42.805,6.029,13.3013,4.60061,2470.32,2022-1-24T08:49:37Z
2022-01-24T06:51:08Z,42.805,6.029,13.3013,4.60065,2470.343,2022-1-24T08:52:40Z
2022-01-24T06:54:11Z,42.805,6.029,13.3014,4.60047,2470.357,2022-1-24T08:55:43Z
2022-01-24T06:57:14Z,42.805,6.029,13.3009,4.60069,2470.32,2022-1-24T08:58:46Z
2022-01-24T07:00:17Z,42.805,6.029,13.3009,4.60052,2470.357,2022-1-24T09:01:49Z
2022-01-24T07:03:21Z,42.805,6.029,13.3010,4.60051,2470.343,2022-1-24T09:04:52Z
2022-01-24T07:06:24Z,42.805,6.029,13.3013,4.60046,2470.343,2022-1-24T09:07:55Z
2022-01-24T07:09:27Z,42.805,6.029,13.3018,4.60064,2470.357,2022-1-24T09:10:59Z
2022-01-24T07:12:30Z,42.805,6.029,13.3009,4.60064,2470.357,2022-1-24T09:14:02Z
2022-01-24T07:15:33Z,42.805,6.029,13.3011,4.60046,2470.366,2022-1-24T09:17:05Z
2022-01-24T07:18:36Z,42.805,6.029,13.3013,4.60049,2470.366,2022-1-24T09:20:08Z
2022-01-24T07:21:39Z,42.805,6.029,13.3004,4.60049,2470.343,2022-1-24T09:23:11Z
2022-01-24T07:24:42Z,42.805,6.029,13.3016,4.60056,2470.38,2022-1-24T09:26:14Z
2022-01-24T07:27:46Z,42.805,6.029,13.3007,4.60044,2470.38,2022-1-24T09:29:17Z
2022-01-24T07:30:49Z,42.805,6.029,13.3006,4.60047,2470.343,2022-1-24T09:32:20Z
2022-01-24T07:33:52Z,42.805,6.029,13.3015,4.60054,2470.366,2022-1-24T09:35:24Z
2022-01-24T07:36:55Z,42.805,6.029,13.3021,4.60063,2470.39,2022-1-24T09:38:27Z
2022-01-24T07:39:58Z,42.805,6.029,13.3009,4.60044,2470.334,2022-1-24T09:41:30Z
2022-01-24T07:43:01Z,42.805,6.029,13.3014,4.60044,2470.343,2022-1-24T09:44:33Z
2022-01-24T07:46:04Z,42.805,6.029,13.3009,4.60073,2470.404,2022-1-24T09:47:36Z
2022-01-24T07:49:07Z,42.805,6.029,13.3006,4.60054,2470.39,2022-1-24T09:50:39Z
2022-01-24T07:52:11Z,42.805,6.029,13.3008,4.60050,2470.404,2022-1-24T09:53:42Z
2022-01-24T07:55:14Z,42.805,6.029,13.3016,4.60075,2470.366,2022-1-24T09:56:45Z
2022-01-24T07:58:17Z,42.805,6.029,13.3008,4.60068,2470.366,2022-1-24T09:59:49Z
2022-01-24T08:01:20Z,42.805,6.029,13.3011,4.60089,2470.39,2022-1-24T10:02:52Z
2022-01-24T08:04:23Z,42.805,6.029,13.3004,4.60046,2470.38,2022-1-24T10:05:55Z
2022-01-24T08:07:26Z,42.805,6.029,13.3019,4.60072,2470.404,2022-1-24T10:08:58Z
2022-01-24T08:10:29Z,42.805,6.029,13.3004,4.60060,2470.437,2022-1-24T10:12:01Z
2022-01-24T08:13:32Z,42.805,6.029,13.3008,4.60047,2470.427,2022-1-24T10:15:04Z
2022-01-24T08:16:36Z,42.805,6.029,13.3004,4.60045,2470.437,2022-1-24T10:18:07Z
2022-01-24T08:19:39Z,42.805,6.029,13.3014,4.60052,2470.39,2022-1-24T10:21:10Z
2022-01-24T08:22:42Z,42.805,6.029,13.3006,4.60044,2470.46,2022-1-24T10:24:14Z
2022-01-24T08:25:45Z,42.805,6.029,13.3014,4.60067,2470.45,2022-1-24T10:27:17Z
2022-01-24T08:28:48Z,42.805,6.029,13.3014,4.60062,2470.413,2022-1-24T10:30:20Z
2022-01-24T08:31:51Z,42.805,6.029,13.3010,4.60047,2470.413,2022-1-24T10:33:23Z
2022-01-24T08:34:54Z,42.805,6.029,13.3006,4.60052,2470.46,2022-1-24T10:36:26Z
2022-01-24T08:37:58Z,42.805,6.029,13.3008,4.60054,2470.45,2022-1-24T10:39:29Z
2022-01-24T08:41:01Z,42.805,6.029,13.3018,4.60067,2470.437,2022-1-24T10:42:32Z
2022-01-24T08:44:04Z,42.805,6.029,13.3009,4.60055,2470.437,2022-1-24T10:45:35Z
2022-01-24T08:47:07Z,42.805,6.029,13.3006,4.60049,2470.427,2022-1-24T10:48:39Z
2022-01-24T08:50:10Z,42.805,6.029,13.3006,4.60047,2470.437,2022-1-24T10:51:42Z
2022-01-24T08:53:13Z,42.805,6.029,13.3013,4.60069,2470.45,2022-1-24T10:54:45Z
2022-01-24T08:56:16Z,42.805,6.029,13.3015,4.60076,2470.437,2022-1-24T10:57:48Z
2022-01-24T08:59:19Z,42.805,6.029,13.3013,4.60081,2470.474,2022-1-24T11:00:51Z
2022-01-24T09:02:23Z,42.805,6.029,13.3009,4.60049,2470.437,2022-1-24T11:03:54Z
2022-01-24T09:05:26Z,42.805,6.029,13.3022,4.60053,2470.483,2022-1-24T11:06:57Z
2022-01-24T09:08:29Z,42.805,6.029,13.3009,4.60049,2470.483,2022-1-24T11:10:01Z
2022-01-24T09:11:32Z,42.805,6.029,13.3005,4.60053,2470.474,2022-1-24T11:13:04Z
2022-01-24T09:14:35Z,42.805,6.029,13.3010,4.60049,2470.52,2022-1-24T11:16:07Z
2022-01-24T09:17:38Z,42.805,6.029,13.3021,4.60088,2470.46,2022-1-24T11:19:10Z
2022-01-24T09:20:41Z,42.805,6.029,13.3009,4.60062,2470.46,2022-1-24T11:22:13Z
2022-01-24T09:23:44Z,42.805,6.029,13.3007,4.60061,2470.497,2022-1-24T11:25:16Z
2022-01-24T09:26:48Z,42.805,6.029,13.3014,4.60072,2470.497,2022-1-24T11:28:19Z
2022-01-24T09:29:51Z,42.805,6.029,13.3008,4.60064,2470.46,2022-1-24T11:31:22Z
2022-01-24T09:32:54Z,42.805,6.029,13.3015,4.60055,2470.483,2022-1-24T11:34:26Z
2022-01-24T09:35:57Z,42.805,6.029,13.3034,4.60089,2470.46,2022-1-24T11:37:29Z
2022-01-24T09:39:00Z,42.805,6.029,13.3017,4.60103,2470.474,2022-1-24T11:40:32Z
2022-01-24T09:42:03Z,42.805,6.029,13.3032,4.60092,2470.483,2022-1-24T11:43:35Z
2022-01-24T09:45:06Z,42.805,6.029,13.3039,4.60104,2470.544,2022-1-24T11:46:38Z
2022-01-24T09:48:09Z,42.805,6.029,13.3040,4.60084,2470.507,2022-1-24T11:49:41Z
2022-01-24T09:51:13Z,42.805,6.029,13.3035,4.60094,2470.474,2022-1-24T11:52:44Z
2022-01-24T09:54:16Z,42.805,6.029,13.3026,4.60076,2470.497,2022-1-24T11:55:47Z
2022-01-24T09:57:19Z,42.805,6.029,13.3054,4.60091,2470.52,2022-1-24T11:58:51Z
2022-01-24T10:00:22Z,42.805,6.029,13.3035,4.60094,2470.497,2022-1-24T12:01:54Z
2022-01-24T10:03:25Z,42.805,6.029,13.3012,4.60070,2470.52,2022-1-24T12:04:57Z
2022-01-24T10:06:28Z,42.805,6.029,13.3010,4.60095,2470.483,2022-1-24T12:08:00Z
2022-01-24T10:09:31Z,42.805,6.029,13.3012,4.60103,2470.52,2022-1-24T12:11:03Z
2022-01-24T10:12:34Z,42.805,6.029,13.3031,4.60110,2470.52,2022-1-24T12:14:06Z
2022-01-24T10:15:38Z,42.805,6.029,13.3031,4.60061,2470.507,2022-1-24T12:17:09Z
2022-01-24T10:18:41Z,42.805,6.029,13.3060,4.60089,2470.553,2022-1-24T12:20:12Z
2022-01-24T10:21:44Z,42.805,6.029,13.3035,4.60094,2470.544,2022-1-24T12:23:16Z
2022-01-24T10:24:47Z,42.805,6.029,13.3031,4.60114,2470.507,2022-1-24T12:26:19Z
2022-01-24T10:27:50Z,42.805,6.029,13.3037,4.60119,2470.567,2022-1-24T12:29:22Z
2022-01-24T10:30:53Z,42.805,6.029,13.3052,4.60115,2470.544,2022-1-24T12:32:25Z
2022-01-24T10:33:56Z,42.805,6.029,13.3051,4.60084,2470.567,2022-1-24T12:35:28Z
2022-01-24T10:36:59Z,42.805,6.029,13.3054,4.60080,2470.507,2022-1-24T12:38:31Z
2022-01-24T10:40:03Z,42.805,6.029,13.3052,4.60087,2470.52,2022-1-24T12:41:34Z
2022-01-24T10:43:06Z,42.805,6.029,13.3022,4.60077,2470.53,2022-1-24T12:44:37Z
2022-01-24T10:46:09Z,42.805,6.029,13.3043,4.60080,2470.53,2022-1-24T12:47:41Z
2022-01-24T10:49:12Z,42.805,6.029,13.3041,4.60079,2470.53,2022-1-24T12:50:44Z
2022-01-24T10:52:15Z,42.805,6.029,13.3061,4.60076,2470.544,2022-1-24T12:53:47Z
2022-01-24T10:55:18Z,42.805,6.029,13.3026,4.60084,2470.52,2022-1-24T12:56:50Z
2022-01-24T10:58:21Z,42.805,6.029,13.3026,4.60084,2470.507,2022-1-24T12:59:53Z
2022-01-24T11:01:24Z,42.805,6.029,13.3035,4.60079,2470.544,2022-1-24T13:02:56Z
2022-01-24T11:04:28Z,42.805,6.029,13.3036,4.60082,2470.567,2022-1-24T13:05:59Z
2022-01-24T11:07:31Z,42.805,6.029,13.3027,4.60140,2470.507,2022-1-24T13:09:02Z
2022-01-24T11:10:34Z,42.805,6.029,13.3041,4.60132,2470.507,2022-1-24T13:12:06Z
2022-01-24T11:13:37Z,42.805,6.029,13.3057,4.60114,2470.53,2022-1-24T13:15:09Z
2022-01-24T11:16:40Z,42.805,6.029,13.3015,4.60145,2470.53,2022-1-24T13:18:12Z
2022-01-24T11:19:43Z,42.805,6.029,13.3022,4.60110,2470.52,2022-1-24T13:21:15Z
2022-01-24T11:22:46Z,42.805,6.029,13.3021,4.60097,2470.567,2022-1-24T13:24:18Z
2022-01-24T11:25:49Z,42.805,6.029,13.3023,4.60094,2470.52,2022-1-24T13:27:21Z
2022-01-24T11:28:53Z,42.805,6.029,13.3019,4.60148,2470.553,2022-1-24T13:30:24Z
2022-01-24T11:31:56Z,42.805,6.029,13.3018,4.60098,2470.53,2022-1-24T13:33:27Z
2022-01-24T11:34:59Z,42.805,6.029,13.3019,4.60097,2470.53,2022-1-24T13:36:31Z
2022-01-24T11:38:02Z,42.805,6.029,13.3019,4.60089,2470.507,2022-1-24T13:39:34Z
2022-01-24T11:41:05Z,42.805,6.029,13.3021,4.60083,2470.507,2022-1-24T13:42:37Z
2022-01-24T11:44:08Z,42.805,6.029,13.3021,4.60079,2470.52,2022-1-24T13:45:40Z
2022-01-24T11:47:11Z,42.805,6.029,13.3012,4.60099,2470.52,2022-1-24T13:48:43Z
2022-01-24T11:50:14Z,42.805,6.029,13.3019,4.60129,2470.544,2022-1-24T13:51:46Z
2022-01-24T11:53:18Z,42.805,6.029,13.3051,4.60137,2470.567,2022-1-24T13:54:49Z
2022-01-24T11:56:21Z,42.805,6.029,13.3019,4.60119,2470.544,2022-1-24T13:57:52Z
2022-01-24T11:59:24Z,42.805,6.029,13.3022,4.60114,2470.53,2022-1-24T14:00:56Z
2022-01-24T12:02:27Z,42.805,6.029,13.3011,4.60070,2470.507,2022-1-24T14:03:59Z
2022-01-24T12:05:30Z,42.805,6.029,13.3015,4.60063,2470.52,2022-1-24T14:07:02Z
2022-01-24T12:08:33Z,42.805,6.029,13.3020,4.60110,2470.53,2022-1-24T14:10:05Z
2022-01-24T12:11:36Z,42.805,6.029,13.3019,4.60079,2470.53,2022-1-24T14:13:08Z
2022-01-24T12:14:39Z,42.805,6.029,13.3015,4.60094,2470.53,2022-1-24T14:16:11Z
2022-01-24T12:17:43Z,42.805,6.029,13.3019,4.60072,2470.53,2022-1-24T14:19:14Z
2022-01-24T12:20:46Z,42.805,6.029,13.3015,4.60108,2470.52,2022-1-24T14:22:17Z
2022-01-24T12:23:49Z,42.805,6.029,13.3034,4.60110,2470.507,2022-1-24T14:25:21Z
2022-01-24T12:26:52Z,42.805,6.029,13.3030,4.60087,2470.52,2022-1-24T14:28:24Z
2022-01-24T12:29:55Z,42.805,6.029,13.3021,4.60090,2470.507,2022-1-24T14:31:27Z
2022-01-24T12:32:58Z,42.805,6.029,13.3019,4.60099,2470.544,2022-1-24T14:34:30Z
2022-01-24T12:36:01Z,42.805,6.029,13.3018,4.60077,2470.483,2022-1-24T14:37:33Z
2022-01-24T12:39:05Z,42.805,6.029,13.3021,4.60080,2470.52,2022-1-24T14:40:36Z
2022-01-24T12:42:08Z,42.805,6.029,13.3010,4.60084,2470.507,2022-1-24T14:43:39Z
2022-01-24T12:45:11Z,42.805,6.029,13.3012,4.60089,2470.497,2022-1-24T14:46:43Z
2022-01-24T12:48:14Z,42.805,6.029,13.3019,4.60105,2470.52,2022-1-24T14:49:46Z
2022-01-24T12:51:17Z,42.805,6.029,13.3018,4.60149,2470.507,2022-1-24T14:52:49Z
2022-01-24T12:54:20Z,42.805,6.029,13.3024,4.60115,2470.52,2022-1-24T14:55:52Z
2022-01-24T12:57:23Z,42.805,6.029,13.3039,4.60127,2470.483,2022-1-24T14:58:55Z
2022-01-24T13:00:26Z,42.805,6.029,13.3052,4.60118,2470.474,2022-1-24T15:01:58Z
2022-01-24T13:03:30Z,42.805,6.029,13.3043,4.60104,2470.52,2022-1-24T15:05:01Z
2022-01-24T13:06:33Z,42.805,6.029,13.3026,4.60103,2470.483,2022-1-24T15:08:04Z
2022-01-24T13:09:36Z,42.805,6.029,13.3034,4.60127,2470.483,2022-1-24T15:11:08Z
2022-01-24T13:12:39Z,42.805,6.029,13.3031,4.60104,2470.483,2022-1-24T15:14:11Z
2022-01-24T13:15:42Z,42.805,6.029,13.3019,4.60125,2470.46,2022-1-24T15:17:14Z
2022-01-24T13:18:45Z,42.805,6.029,13.3019,4.60115,2470.497,2022-1-24T15:20:17Z
2022-01-24T13:21:48Z,42.805,6.029,13.3020,4.60114,2470.497,2022-1-24T15:23:20Z
2022-01-24T13:24:51Z,42.805,6.029,13.3016,4.60099,2470.52,2022-1-24T15:26:23Z
2022-01-24T13:27:55Z,42.805,6.029,13.3015,4.60125,2470.497,2022-1-24T15:29:26Z
2022-01-24T13:30:58Z,42.805,6.029,13.3021,4.60114,2470.483,2022-1-24T15:32:29Z
2022-01-24T13:34:01Z,42.805,6.029,13.3034,4.60135,2470.497,2022-1-24T15:35:33Z
2022-01-24T13:37:04Z,42.805,6.029,13.3031,4.60152,2470.437,2022-1-24T15:38:36Z
2022-01-24T13:40:07Z,42.805,6.029,13.3022,4.60102,2470.483,2022-1-24T15:41:39Z
2022-01-24T13:43:10Z,42.805,6.029,13.3019,4.60143,2470.497,2022-1-24T15:44:42Z
2022-01-24T13:46:13Z,42.805,6.029,13.3023,4.60104,2470.507,2022-1-24T15:47:45Z
2022-01-24T13:49:16Z,42.805,6.029,13.3034,4.60095,2470.483,2022-1-24T15:50:48Z
2022-01-24T13:52:20Z,42.805,6.029,13.3033,4.60110,2470.46,2022-1-24T15:53:51Z
2022-01-24T13:55:23Z,42.805,6.029,13.3031,4.60112,2470.483,2022-1-24T15:56:54Z
2022-01-24T13:58:26Z,42.805,6.029,13.3030,4.60103,2470.497,2022-1-24T15:59:58Z
2022-01-24T14:01:29Z,42.805,6.029,13.3034,4.60081,2470.483,2022-1-24T16:03:01Z
2022-01-24T14:04:32Z,42.805,6.029,13.3031,4.60094,2470.437,2022-1-24T16:06:04Z
2022-01-24T14:07:35Z,42.805,6.029,13.3024,4.60117,2470.483,2022-1-24T16:09:07Z
2022-01-24T14:10:38Z,42.805,6.029,13.3023,4.60111,2470.46,2022-1-24T16:12:10Z
2022-01-24T14:13:41Z,42.805,6.029,13.3041,4.60092,2470.507,2022-1-24T16:15:13Z
2022-01-24T14:16:45Z,42.805,6.029,13.3046,4.60103,2470.497,2022-1-24T16:18:16Z
2022-01-24T14:19:48Z,42.805,6.029,13.3022,4.60104,2470.437,2022-1-24T16:21:20Z
2022-01-24T14:22:51Z,42.805,6.029,13.3028,4.60090,2470.497,2022-1-24T16:24:23Z
2022-01-24T14:25:54Z,42.805,6.029,13.3043,4.60083,2470.437,2022-1-24T16:27:26Z
2022-01-24T14:28:57Z,42.805,6.029,13.3031,4.60114,2470.474,2022-1-24T16:30:29Z
2022-01-24T14:32:00Z,42.805,6.029,13.3029,4.60094,2470.46,2022-1-24T16:33:32Z
2022-01-24T14:35:03Z,42.805,6.029,13.3039,4.60096,2470.45,2022-1-24T16:36:35Z
2022-01-24T14:38:07Z,42.805,6.029,13.3032,4.60100,2470.474,2022-1-24T16:39:38Z
2022-01-24T14:41:10Z,42.805,6.029,13.3045,4.60074,2470.483,2022-1-24T16:42:41Z
2022-01-24T14:44:13Z,42.805,6.029,13.3048,4.60067,2470.46,2022-1-24T16:45:45Z
2022-01-24T14:47:16Z,42.805,6.029,13.3029,4.60052,2470.413,2022-1-24T16:48:48Z
2022-01-24T14:50:19Z,42.805,6.029,13.3022,4.60059,2470.474,2022-1-24T16:51:51Z
2022-01-24T14:53:22Z,42.805,6.029,13.3036,4.60056,2470.446,2022-1-24T16:54:54Z
2022-01-24T14:56:25Z,42.805,6.029,13.3020,4.60071,2470.437,2022-1-24T16:57:57Z
2022-01-24T14:59:28Z,42.805,6.029,13.3023,4.60044,2470.474,2022-1-24T17:01:00Z
2022-01-24T15:02:32Z,42.805,6.029,13.3026,4.60054,2470.437,2022-1-24T17:04:03Z
2022-01-24T15:05:35Z,42.805,6.029,13.3029,4.60055,2470.45,2022-1-24T17:07:06Z
2022-01-24T15:08:38Z,42.805,6.029,13.3030,4.60099,2470.427,2022-1-24T17:10:10Z
2022-01-24T15:11:41Z,42.805,6.029,13.3032,4.60081,2470.46,2022-1-24T17:13:13Z
2022-01-24T15:14:44Z,42.805,6.029,13.3038,4.60080,2470.45,2022-1-24T17:16:16Z